Hourly Data Report for September 15, 2017

All times are specified in Local Standard Time (LST). Add 1 hour to adjust for Daylight Saving Time where and when it is observed.

BUCTOUCHE CDA CS
NEW BRUNSWICK

46°25'49.006" N
64°46'05.009" W
35.90 m
8100593
71666
ABT

Download Data

Hourly Data (September 2017)
Hourly Data Report for September 15, 2017
Temp Definition
°C
Dew Point Temp Definition
°C
Rel Hum Definition
%
Wind Dir Definition
10's deg

Wind Spd Definition
km/h
Visibility Definition
km
Stn Press Definition
kPa
Hmdx Definition


Wind Chill Definition


Weather Definition


TIME
00:00 15.7 13.2 85 32 7   100.87     LegendNANA
01:00 15.1 11.5 79 34 6   100.95     LegendNANA
02:00 13.4 11.1 86 33 2   101.03     LegendNANA
03:00 12.6 11.2 91 35 3   101.06     LegendNANA
04:00 11.4 10.5 94 35 3   101.11     LegendNANA
05:00 10.3 9.4 94 0 1   101.20     LegendNANA
06:00 12.1 11.4 96 1 1   101.30     LegendNANA
07:00 13.4 11.6 89 8 5   101.39     LegendNANA
08:00 15.0 12.2 83 7 4   101.47     LegendNANA
09:00 16.9 11.1 68 8 8   101.54     LegendNANA
10:00 17.6 10.3 62 8 9   101.59     LegendNANA
11:00 18.5 11.8 65 9 8   101.61     LegendNANA
12:00 18.6 10.7 60 7 7   101.59     LegendNANA
13:00 19.0 11.1 60 8 7   101.56     LegendNANA
14:00 19.2 10.8 58 5 9   101.52     LegendNANA
15:00 19.8 10.5 55 9 8   101.52     LegendNANA
16:00 18.9 11.1 61 8 9   101.53     LegendNANA
17:00 18.2 10.7 61 10 7   101.55     LegendNANA
18:00 16.3 12.1 76 6 7   101.56     LegendNANA
19:00 13.9 11.3 85 8 3   101.56     LegendNANA
20:00 13.4 11.5 88 9 4   101.61     LegendNANA
21:00 13.2 11.4 89 13 5   101.58     LegendNANA
22:00 12.1 10.8 92   0   101.57     LegendNANA
23:00 13.1 12.1 94 15 7   101.54     LegendNANA

Notes on Data Quality.

Legend

  • E = Estimated
  • M = Missing
  • NA = Not Available
  • ‡ = Partner data that is not subject to review by the National Climate Archives
Date modified: